Time,TemperatureF,DewpointF,PressureIn,WindDirection,WindDirectionDegrees,WindSpeedMPH,WindSpeedGustMPH,Humidity,HourlyPrecipIn,Conditions,Clouds,dailyrainin,SolarRadiationWatts/m^2,SoftwareType,DateUTC
2013-12-20 00:02:00,45.8,38.3,29.79,ENE,76,0.0,1.0,75,0.00,,,0.20,0000,Weather View 32 v70,2013-12-20 08:02:00,
2013-12-20 00:07:00,45.7,38.2,29.79,ENE,75,0.0,0.0,75,0.00,,,0.20,0000,Weather View 32 v70,2013-12-20 08:07:00,
2013-12-20 00:12:00,45.6,38.1,29.79,ENE,76,0.0,0.0,75,0.00,,,0.20,0000,Weather View 32 v70,2013-12-20 08:12:00,
2013-12-20 00:17:00,45.6,38.1,29.79,ENE,76,0.0,0.0,75,0.00,,,0.20,0000,Weather View 32 v70,2013-12-20 08:17:00,
2013-12-20 00:22:00,45.6,37.8,29.79,East,97,0.0,1.0,74,0.00,,,0.20,0000,Weather View 32 v70,2013-12-20 08:22:00,
2013-12-20 00:27:00,45.6,37.8,29.79,East,98,0.0,0.0,74,0.00,,,0.20,0000,Weather View 32 v70,2013-12-20 08:27:00,
2013-12-20 00:32:00,45.6,37.8,29.79,East,98,0.0,0.0,74,0.00,,,0.20,0000,Weather View 32 v70,2013-12-20 08:32:00,
2013-12-20 00:37:00,45.5,37.7,29.79,East,98,0.0,0.0,74,0.00,,,0.20,0000,Weather View 32 v70,2013-12-20 08:37:00,
2013-12-20 00:42:00,45.5,37.7,29.79,East,98,0.0,0.0,74,0.00,,,0.20,0000,Weather View 32 v70,2013-12-20 08:42:00,
2013-12-20 00:47:00,45.4,37.6,29.78,East,98,0.0,0.0,74,0.00,,,0.20,0000,Weather View 32 v70,2013-12-20 08:47:00,
2013-12-20 00:52:00,45.4,37.6,29.78,East,98,0.0,0.0,74,0.00,,,0.20,0000,Weather View 32 v70,2013-12-20 08:52:00,
2013-12-20 00:57:00,45.2,37.4,29.78,East,98,0.0,0.0,74,0.00,,,0.20,0000,Weather View 32 v70,2013-12-20 08:57:00,
2013-12-20 01:02:00,45.2,37.4,29.79,East,98,0.0,1.0,74,0.00,,,0.20,0000,Weather View 32 v70,2013-12-20 09:02:00,
2013-12-20 01:07:00,45.0,37.2,29.79,East,98,1.0,2.0,74,0.00,,,0.20,0000,Weather View 32 v70,2013-12-20 09:07:00,
2013-12-20 01:12:00,45.0,37.5,29.79,East,98,0.0,1.0,75,0.00,,,0.20,0000,Weather View 32 v70,2013-12-20 09:12:00,
2013-12-20 01:17:00,44.7,37.3,29.79,East,98,0.0,1.0,75,0.00,,,0.20,0000,Weather View 32 v70,2013-12-20 09:17:00,
2013-12-20 01:22:00,44.7,37.3,29.79,East,98,0.0,0.0,75,0.00,,,0.20,0000,Weather View 32 v70,2013-12-20 09:22:00,
2013-12-20 01:28:00,44.7,36.9,29.79,East,98,0.0,0.0,74,0.00,,,0.20,0000,Weather View 32 v70,2013-12-20 09:28:00,
2013-12-20 01:32:00,44.8,37.0,29.79,East,98,0.0,0.0,74,0.00,,,0.20,0000,Weather View 32 v70,2013-12-20 09:32:00,
2013-12-20 01:37:00,44.9,36.8,29.79,East,98,1.0,1.0,73,0.00,,,0.20,0000,Weather View 32 v70,2013-12-20 09:37:00,
2013-12-20 01:43:00,45.0,36.9,29.80,East,97,0.0,1.0,73,0.00,,,0.20,0000,Weather View 32 v70,2013-12-20 09:43:00,
2013-12-20 01:47:00,45.0,36.9,29.80,NE,46,0.0,1.0,73,0.00,,,0.20,0000,Weather View 32 v70,2013-12-20 09:47:00,
2013-12-20 01:52:00,44.7,36.9,29.80,East,98,0.0,0.0,74,0.00,,,0.20,0000,Weather View 32 v70,2013-12-20 09:52:00,
2013-12-20 01:57:00,44.4,36.6,29.79,East,98,0.0,1.0,74,0.00,,,0.20,0000,Weather View 32 v70,2013-12-20 09:57:00,
2013-12-20 02:03:00,44.3,36.5,29.80,East,98,0.0,0.0,74,0.00,,,0.20,0000,Weather View 32 v70,2013-12-20 10:03:00,
2013-12-20 02:07:00,44.1,36.3,29.80,East,98,0.0,0.0,74,0.00,,,0.20,0000,Weather View 32 v70,2013-12-20 10:07:00,
2013-12-20 02:12:00,44.1,36.3,29.80,East,94,0.0,1.0,74,0.00,,,0.20,0000,Weather View 32 v70,2013-12-20 10:12:00,
2013-12-20 02:18:00,44.2,36.4,29.80,East,98,0.0,2.0,74,0.00,,,0.20,0000,Weather View 32 v70,2013-12-20 10:18:00,
2013-12-20 02:22:00,44.3,36.5,29.80,East,98,0.0,0.0,74,0.00,,,0.20,0000,Weather View 32 v70,2013-12-20 10:22:00,
2013-12-20 02:28:00,44.5,36.4,29.80,East,98,0.0,1.0,73,0.00,,,0.20,0000,Weather View 32 v70,2013-12-20 10:28:00,
2013-12-20 02:33:00,44.7,36.2,29.80,East,98,0.0,0.0,72,0.00,,,0.20,0000,Weather View 32 v70,2013-12-20 10:33:00,
2013-12-20 02:38:00,45.2,36.0,29.80,East,99,0.0,1.0,70,0.00,,,0.20,0000,Weather View 32 v70,2013-12-20 10:38:00,
2013-12-20 02:43:00,45.5,35.9,29.80,East,99,0.0,0.0,69,0.00,,,0.20,0000,Weather View 32 v70,2013-12-20 10:43:00,
2013-12-20 02:48:00,45.7,36.5,29.80,East,99,0.0,0.0,70,0.00,,,0.20,0000,Weather View 32 v70,2013-12-20 10:48:00,
2013-12-20 02:53:00,45.7,36.1,29.80,East,99,0.0,1.0,69,0.00,,,0.20,0000,Weather View 32 v70,2013-12-20 10:53:00,
2013-12-20 02:58:00,45.5,35.9,29.81,East,99,0.0,1.0,69,0.00,,,0.20,0000,Weather View 32 v70,2013-12-20 10:58:00,
2013-12-20 03:03:00,45.4,36.5,29.81,East,99,0.0,0.0,71,0.00,,,0.20,0000,Weather View 32 v70,2013-12-20 11:03:00,
2013-12-20 03:08:00,45.1,36.2,29.80,East,99,0.0,0.0,71,0.00,,,0.20,0000,Weather View 32 v70,2013-12-20 11:08:00,
2013-12-20 03:13:00,45.0,36.2,29.80,East,99,0.0,1.0,71,0.00,,,0.20,0000,Weather View 32 v70,2013-12-20 11:13:00,
2013-12-20 03:18:00,45.0,35.4,29.81,East,99,0.0,1.0,69,0.00,,,0.20,0000,Weather View 32 v70,2013-12-20 11:18:00,
2013-12-20 03:23:00,45.1,35.5,29.81,East,99,0.0,0.0,69,0.00,,,0.20,0000,Weather View 32 v70,2013-12-20 11:23:00,
2013-12-20 03:28:00,45.3,35.3,29.80,East,99,0.0,0.0,68,0.00,,,0.20,0000,Weather View 32 v70,2013-12-20 11:28:00,
2013-12-20 03:33:00,45.5,35.5,29.80,East,99,0.0,0.0,68,0.00,,,0.20,0000,Weather View 32 v70,2013-12-20 11:33:00,
2013-12-20 03:38:00,45.7,35.7,29.80,East,99,0.0,1.0,68,0.00,,,0.20,0000,Weather View 32 v70,2013-12-20 11:38:00,
2013-12-20 03:43:00,45.7,36.1,29.80,East,99,0.0,0.0,69,0.00,,,0.20,0000,Weather View 32 v70,2013-12-20 11:43:00,
2013-12-20 03:48:00,45.6,35.6,29.79,East,99,0.0,0.0,68,0.00,,,0.20,0000,Weather View 32 v70,2013-12-20 11:48:00,
2013-12-20 03:53:00,45.5,35.5,29.79,East,99,0.0,1.0,68,0.00,,,0.20,0000,Weather View 32 v70,2013-12-20 11:53:00,
2013-12-20 03:58:00,45.4,35.4,29.79,East,99,0.0,0.0,68,0.00,,,0.20,0000,Weather View 32 v70,2013-12-20 11:58:00,
2013-12-20 04:03:00,45.3,35.0,29.79,East,99,0.0,0.0,67,0.00,,,0.20,0000,Weather View 32 v70,2013-12-20 12:03:00,
2013-12-20 04:08:00,45.3,35.0,29.79,East,99,0.0,0.0,67,0.00,,,0.20,0000,Weather View 32 v70,2013-12-20 12:08:00,
2013-12-20 04:13:00,45.4,35.1,29.79,East,99,0.0,0.0,67,0.00,,,0.20,0000,Weather View 32 v70,2013-12-20 12:13:00,
2013-12-20 04:18:00,45.5,35.2,29.78,East,99,0.0,0.0,67,0.00,,,0.20,0000,Weather View 32 v70,2013-12-20 12:18:00,
2013-12-20 04:23:00,45.5,35.2,29.79,East,99,0.0,1.0,67,0.00,,,0.20,0000,Weather View 32 v70,2013-12-20 12:23:00,
2013-12-20 04:28:00,45.3,34.6,29.78,East,99,0.0,0.0,66,0.00,,,0.20,0000,Weather View 32 v70,2013-12-20 12:28:00,
2013-12-20 04:33:00,45.3,35.0,29.78,East,99,0.0,0.0,67,0.00,,,0.20,0000,Weather View 32 v70,2013-12-20 12:33:00,
2013-12-20 04:38:00,45.3,35.3,29.78,East,99,1.0,1.0,68,0.00,,,0.20,0000,Weather View 32 v70,2013-12-20 12:38:00,
2013-12-20 04:43:00,45.2,35.3,29.78,East,99,0.0,0.0,68,0.00,,,0.20,0000,Weather View 32 v70,2013-12-20 12:43:00,
2013-12-20 04:48:00,45.1,35.2,29.79,NNE,21,0.0,2.0,68,0.00,,,0.20,0000,Weather View 32 v70,2013-12-20 12:48:00,
2013-12-20 04:53:00,45.0,35.4,29.79,NNE,17,0.0,0.0,69,0.00,,,0.20,0000,Weather View 32 v70,2013-12-20 12:53:00,
2013-12-20 04:58:00,44.9,35.0,29.79,NNW,333,0.0,1.0,68,0.00,,,0.20,0000,Weather View 32 v70,2013-12-20 12:58:00,
2013-12-20 05:03:00,44.8,34.9,29.79,NNW,331,0.0,0.0,68,0.00,,,0.20,0000,Weather View 32 v70,2013-12-20 13:03:00,
2013-12-20 05:08:00,44.8,34.5,29.79,NNW,331,0.0,0.0,67,0.00,,,0.20,0000,Weather View 32 v70,2013-12-20 13:08:00,
2013-12-20 05:13:00,44.9,34.2,29.78,NNW,331,0.0,0.0,66,0.00,,,0.20,0000,Weather View 32 v70,2013-12-20 13:13:00,
2013-12-20 05:18:00,45.0,34.7,29.78,NNW,332,0.0,0.0,67,0.00,,,0.20,0000,Weather View 32 v70,2013-12-20 13:18:00,
2013-12-20 05:23:00,45.0,34.7,29.78,NNW,342,0.0,0.0,67,0.00,,,0.20,0000,Weather View 32 v70,2013-12-20 13:23:00,
2013-12-20 05:28:00,45.0,35.1,29.79,NNW,342,0.0,1.0,68,0.00,,,0.20,0000,Weather View 32 v70,2013-12-20 13:28:00,
2013-12-20 05:33:00,45.0,34.7,29.79,NNW,343,0.0,1.0,67,0.00,,,0.20,0000,Weather View 32 v70,2013-12-20 13:33:00,
2013-12-20 05:38:00,45.0,34.7,29.79,NNW,344,0.0,1.0,67,0.00,,,0.20,0000,Weather View 32 v70,2013-12-20 13:38:00,
2013-12-20 05:43:00,44.9,35.0,29.79,NNW,344,0.0,1.0,68,0.00,,,0.20,0000,Weather View 32 v70,2013-12-20 13:43:00,
2013-12-20 05:48:00,44.9,34.6,29.79,NNW,344,0.0,0.0,67,0.00,,,0.20,0000,Weather View 32 v70,2013-12-20 13:48:00,
2013-12-20 05:53:00,44.8,34.5,29.79,NNW,344,0.0,0.0,67,0.00,,,0.20,0000,Weather View 32 v70,2013-12-20 13:53:00,
2013-12-20 05:58:00,44.7,34.4,29.80,NNW,344,0.0,0.0,67,0.00,,,0.20,0000,Weather View 32 v70,2013-12-20 13:58:00,
2013-12-20 06:03:00,44.7,34.0,29.80,NNW,344,0.0,0.0,66,0.00,,,0.20,0000,Weather View 32 v70,2013-12-20 14:03:00,
2013-12-20 06:08:00,44.7,34.0,29.81,NNW,344,0.0,0.0,66,0.00,,,0.20,0000,Weather View 32 v70,2013-12-20 14:08:00,
2013-12-20 06:13:00,44.7,34.0,29.81,NNW,344,0.0,0.0,66,0.00,,,0.20,0000,Weather View 32 v70,2013-12-20 14:13:00,
2013-12-20 06:18:00,44.8,34.1,29.81,NNW,344,0.0,1.0,66,0.00,,,0.20,0000,Weather View 32 v70,2013-12-20 14:18:00,
2013-12-20 06:23:00,44.7,34.4,29.81,NNW,344,0.0,0.0,67,0.00,,,0.20,0000,Weather View 32 v70,2013-12-20 14:23:00,
2013-12-20 06:28:00,44.6,34.3,29.81,North,355,0.0,0.0,67,0.00,,,0.20,0000,Weather View 32 v70,2013-12-20 14:28:00,
2013-12-20 06:33:00,44.5,34.2,29.81,North,355,0.0,0.0,67,0.00,,,0.20,0000,Weather View 32 v70,2013-12-20 14:33:00,
2013-12-20 06:38:00,44.5,34.2,29.82,North,355,0.0,0.0,67,0.00,,,0.20,0000,Weather View 32 v70,2013-12-20 14:38:00,
2013-12-20 06:43:00,44.4,33.7,29.82,North,355,0.0,0.0,66,0.00,,,0.20,0000,Weather View 32 v70,2013-12-20 14:43:00,
2013-12-20 06:48:00,44.4,34.1,29.82,North,355,0.0,1.0,67,0.00,,,0.20,0000,Weather View 32 v70,2013-12-20 14:48:00,
2013-12-20 06:57:00,44.3,34.0,29.82,North,355,0.0,0.0,67,0.00,,,0.20,0000,Weather View 32 v70,2013-12-20 14:57:00,
2013-12-20 07:02:00,44.3,34.0,29.83,North,355,0.0,0.0,67,0.00,,,0.00,0005,Weather View 32 v70,2013-12-20 15:02:00,
2013-12-20 07:07:00,44.3,34.0,29.83,North,355,0.0,0.0,67,0.00,,,0.00,0007,Weather View 32 v70,2013-12-20 15:07:00,
2013-12-20 07:12:00,44.3,34.0,29.83,North,355,0.0,0.0,67,0.00,,,0.00,0007,Weather View 32 v70,2013-12-20 15:12:00,
2013-12-20 07:17:00,0.0,0.0,29.83,North,0,0.0,0.0,0,0.00,,,0.00,,Weather View 32 v70,2013-12-20 15:17:00,
2013-12-20 07:22:00,0.0,0.0,29.83,North,0,0.0,0.0,0,0.00,,,0.00,,Weather View 32 v70,2013-12-20 15:22:00,
2013-12-20 07:27:00,0.0,0.0,29.83,North,0,0.0,0.0,0,0.00,,,0.00,,Weather View 32 v70,2013-12-20 15:27:00,
2013-12-20 07:32:00,0.0,0.0,29.83,North,0,0.0,0.0,0,0.00,,,0.00,,Weather View 32 v70,2013-12-20 15:32:00,
2013-12-20 07:37:00,0.0,0.0,29.83,North,0,0.0,0.0,0,0.00,,,0.00,,Weather View 32 v70,2013-12-20 15:37:00,
2013-12-20 07:42:00,0.0,0.0,29.83,North,0,0.0,0.0,0,0.00,,,0.00,,Weather View 32 v70,2013-12-20 15:42:00,
2013-12-20 07:47:00,0.0,0.0,29.83,North,0,0.0,0.0,0,0.00,,,0.00,,Weather View 32 v70,2013-12-20 15:47:00,
2013-12-20 07:52:00,0.0,0.0,29.83,North,0,0.0,0.0,0,0.00,,,0.00,,Weather View 32 v70,2013-12-20 15:52:00,
2013-12-20 07:57:00,0.0,0.0,29.83,North,0,0.0,0.0,0,-0.20,,,0.00,,Weather View 32 v70,2013-12-20 15:57:00,
2013-12-20 08:02:00,0.0,0.0,29.83,North,0,0.0,0.0,0,0.00,,,0.00,,Weather View 32 v70,2013-12-20 16:02:00,
2013-12-20 08:07:00,0.0,0.0,29.83,North,0,0.0,0.0,0,0.00,,,0.00,,Weather View 32 v70,2013-12-20 16:07:00,
2013-12-20 08:12:00,0.0,0.0,29.83,North,0,0.0,0.0,0,0.00,,,0.00,,Weather View 32 v70,2013-12-20 16:12:00,
2013-12-20 08:17:00,0.0,0.0,29.83,North,0,0.0,0.0,0,0.00,,,0.00,,Weather View 32 v70,2013-12-20 16:17:00,
2013-12-20 08:22:00,0.0,0.0,29.83,North,0,0.0,0.0,0,0.00,,,0.00,,Weather View 32 v70,2013-12-20 16:22:00,
2013-12-20 08:27:00,0.0,0.0,29.83,North,0,0.0,0.0,0,0.00,,,0.00,,Weather View 32 v70,2013-12-20 16:27:00,
2013-12-20 08:32:00,0.0,0.0,29.83,North,0,0.0,0.0,0,0.00,,,0.00,,Weather View 32 v70,2013-12-20 16:32:00,
2013-12-20 08:37:00,0.0,0.0,29.83,North,0,0.0,0.0,0,0.00,,,0.00,,Weather View 32 v70,2013-12-20 16:37:00,
2013-12-20 08:42:00,0.0,0.0,29.84,North,0,0.0,0.0,0,0.00,,,0.00,,Weather View 32 v70,2013-12-20 16:42:00,
2013-12-20 08:47:00,0.0,0.0,29.84,North,0,0.0,0.0,0,0.00,,,0.00,,Weather View 32 v70,2013-12-20 16:47:00,
2013-12-20 08:52:00,0.0,0.0,29.84,North,0,0.0,0.0,0,0.00,,,0.00,,Weather View 32 v70,2013-12-20 16:52:00,
2013-12-20 08:57:00,50.0,38.7,29.84,ESE,109,2.0,2.0,65,0.00,,,0.00,0269,Weather View 32 v70,2013-12-20 16:57:00,
2013-12-20 09:02:00,50.4,39.8,29.84,ESE,111,0.0,1.0,67,0.00,,,0.00,0248,Weather View 32 v70,2013-12-20 17:02:00,
2013-12-20 09:07:00,50.9,39.9,29.84,ESE,105,0.0,0.0,66,0.00,,,0.00,0218,Weather View 32 v70,2013-12-20 17:07:00,
2013-12-20 09:12:00,51.5,38.5,29.85,ESE,113,1.0,1.0,61,0.00,,,0.00,0197,Weather View 32 v70,2013-12-20 17:12:00,
2013-12-20 09:17:00,52.1,38.2,29.84,ESE,113,0.0,0.0,59,0.00,,,0.00,0234,Weather View 32 v70,2013-12-20 17:17:00,
2013-12-20 09:23:00,52.7,38.7,29.85,ESE,113,0.0,0.0,59,0.00,,,0.00,0090,Weather View 32 v70,2013-12-20 17:23:00,
2013-12-20 09:28:00,53.3,39.3,29.85,ESE,113,0.0,0.0,59,0.00,,,0.00,0125,Weather View 32 v70,2013-12-20 17:28:00,
2013-12-20 09:33:00,53.7,39.7,29.85,ESE,113,0.0,0.0,59,0.00,,,0.00,0381,Weather View 32 v70,2013-12-20 17:33:00,
2013-12-20 09:38:00,54.2,39.7,29.86,ESE,113,0.0,0.0,58,0.00,,,0.00,0329,Weather View 32 v70,2013-12-20 17:38:00,
2013-12-20 09:43:00,54.7,39.7,29.86,ESE,113,0.0,0.0,57,0.00,,,0.00,0369,Weather View 32 v70,2013-12-20 17:43:00,
2013-12-20 09:48:00,55.1,39.2,29.85,ESE,113,0.0,0.0,55,0.00,,,0.00,0279,Weather View 32 v70,2013-12-20 17:48:00,
2013-12-20 09:53:00,55.5,39.1,29.85,SE,129,1.0,1.0,54,0.00,,,0.00,0378,Weather View 32 v70,2013-12-20 17:53:00,
2013-12-20 09:58:00,55.8,38.9,29.85,SE,139,3.0,3.0,53,0.00,,,0.00,0410,Weather View 32 v70,2013-12-20 17:58:00,
2013-12-20 10:03:00,55.8,37.9,29.85,SE,140,0.0,2.0,51,0.00,,,0.00,0171,Weather View 32 v70,2013-12-20 18:03:00,
2013-12-20 10:08:00,56.0,39.6,29.86,SE,140,0.0,1.0,54,0.00,,,0.00,0338,Weather View 32 v70,2013-12-20 18:08:00,
2013-12-20 10:13:00,56.4,40.4,29.86,SE,140,0.0,0.0,55,0.00,,,0.00,0431,Weather View 32 v70,2013-12-20 18:13:00,
2013-12-20 10:18:00,56.9,39.4,29.86,SE,140,0.0,0.0,52,0.00,,,0.00,0213,Weather View 32 v70,2013-12-20 18:18:00,
2013-12-20 10:23:00,57.3,39.3,29.85,SE,140,0.0,1.0,51,0.00,,,0.00,0278,Weather View 32 v70,2013-12-20 18:23:00,
2013-12-20 10:28:00,57.5,38.4,29.85,SE,140,0.0,0.0,49,0.00,,,0.00,0318,Weather View 32 v70,2013-12-20 18:28:00,
2013-12-20 10:33:00,57.9,39.8,29.85,SE,140,0.0,0.0,51,0.00,,,0.00,0404,Weather View 32 v70,2013-12-20 18:33:00,
2013-12-20 10:38:00,58.4,40.3,29.85,SE,140,0.0,0.0,51,0.00,,,0.00,0199,Weather View 32 v70,2013-12-20 18:38:00,
2013-12-20 10:43:00,59.0,39.3,29.85,SE,140,0.0,0.0,48,0.00,,,0.00,0476,Weather View 32 v70,2013-12-20 18:43:00,
2013-12-20 10:48:00,59.7,39.9,29.85,SE,140,0.0,1.0,48,0.00,,,0.00,0485,Weather View 32 v70,2013-12-20 18:48:00,
2013-12-20 10:53:00,60.3,38.2,29.85,SE,140,0.0,0.0,44,0.00,,,0.00,0413,Weather View 32 v70,2013-12-20 18:53:00,
2013-12-20 10:58:00,60.9,39.9,29.85,NW,319,0.0,1.0,46,0.00,,,0.00,0329,Weather View 32 v70,2013-12-20 18:58:00,
2013-12-20 11:03:00,61.3,40.9,29.85,NW,319,0.0,1.0,47,0.00,,,0.00,0464,Weather View 32 v70,2013-12-20 19:03:00,
2013-12-20 11:08:00,61.7,41.2,29.85,NW,319,0.0,0.0,47,0.00,,,0.00,0338,Weather View 32 v70,2013-12-20 19:08:00,
2013-12-20 11:13:00,62.1,40.5,29.84,NW,313,0.0,1.0,45,0.00,,,0.00,0243,Weather View 32 v70,2013-12-20 19:13:00,
2013-12-20 11:18:00,62.3,39.5,29.84,NW,313,0.0,1.0,43,0.00,,,0.00,0489,Weather View 32 v70,2013-12-20 19:18:00,
2013-12-20 11:23:00,62.5,39.0,29.83,NW,313,0.0,0.0,42,0.00,,,0.00,0185,Weather View 32 v70,2013-12-20 19:23:00,
2013-12-20 11:28:00,62.9,40.6,29.83,NW,317,0.0,0.0,44,0.00,,,0.00,0454,Weather View 32 v70,2013-12-20 19:28:00,
2013-12-20 11:33:00,63.1,39.6,29.83,NW,317,0.0,0.0,42,0.00,,,0.00,0069,Weather View 32 v70,2013-12-20 19:33:00,
2013-12-20 11:38:00,63.4,39.9,29.83,WNW,286,0.0,0.0,42,0.00,,,0.00,0113,Weather View 32 v70,2013-12-20 19:38:00,
2013-12-20 11:43:00,63.6,39.4,29.83,WNW,300,0.0,0.0,41,0.00,,,0.00,0299,Weather View 32 v70,2013-12-20 19:43:00,
2013-12-20 11:48:00,63.9,39.0,29.83,NW,304,0.0,0.0,40,0.00,,,0.00,0366,Weather View 32 v70,2013-12-20 19:48:00,
2013-12-20 11:53:00,63.7,38.2,29.83,NW,304,0.0,1.0,39,0.00,,,0.00,0348,Weather View 32 v70,2013-12-20 19:53:00,
2013-12-20 11:58:00,63.9,39.0,29.83,NW,305,0.0,0.0,40,0.00,,,0.00,0290,Weather View 32 v70,2013-12-20 19:58:00,
2013-12-20 12:03:00,63.9,39.0,29.83,NW,307,0.0,1.0,40,0.00,,,0.00,0443,Weather View 32 v70,2013-12-20 20:03:00,
2013-12-20 12:08:00,63.9,39.0,29.83,NNW,327,2.0,2.0,40,0.00,,,0.00,0524,Weather View 32 v70,2013-12-20 20:08:00,
2013-12-20 12:13:00,64.1,37.9,29.82,NNW,327,0.0,0.0,38,0.00,,,0.00,0541,Weather View 32 v70,2013-12-20 20:13:00,
2013-12-20 12:18:00,64.3,38.8,29.82,NNW,327,0.0,1.0,39,0.00,,,0.00,0555,Weather View 32 v70,2013-12-20 20:18:00,
2013-12-20 12:23:00,64.5,37.6,29.82,NNW,327,0.0,1.0,37,0.00,,,0.00,0163,Weather View 32 v70,2013-12-20 20:23:00,
2013-12-20 12:28:00,64.5,38.9,29.82,NNW,327,0.0,0.0,39,0.00,,,0.00,0113,Weather View 32 v70,2013-12-20 20:28:00,
2013-12-20 12:33:00,64.5,39.6,29.82,NW,326,1.0,2.0,40,0.00,,,0.00,0067,Weather View 32 v70,2013-12-20 20:33:00,
2013-12-20 12:38:00,64.4,38.8,29.82,NW,326,0.0,0.0,39,0.00,,,0.00,0246,Weather View 32 v70,2013-12-20 20:38:00,
2013-12-20 12:43:00,64.6,39.0,29.82,NNW,331,0.0,0.0,39,0.00,,,0.00,0197,Weather View 32 v70,2013-12-20 20:43:00,
2013-12-20 12:48:00,64.8,37.9,29.82,NNW,330,0.0,0.0,37,0.00,,,0.00,0200,Weather View 32 v70,2013-12-20 20:48:00,
2013-12-20 12:53:00,64.7,37.8,29.82,WNW,287,3.0,3.0,37,0.00,,,0.00,0114,Weather View 32 v70,2013-12-20 20:53:00,
2013-12-20 12:58:00,64.7,37.8,29.82,WNW,298,0.0,2.0,37,0.00,,,0.00,0218,Weather View 32 v70,2013-12-20 20:58:00,
2013-12-20 13:03:00,64.6,36.3,29.82,WNW,284,0.0,1.0,35,0.00,,,0.00,0137,Weather View 32 v70,2013-12-20 21:03:00,
2013-12-20 13:08:00,64.6,37.7,29.82,WNW,289,0.0,0.0,37,0.00,,,0.00,0056,Weather View 32 v70,2013-12-20 21:08:00,
2013-12-20 13:13:00,64.8,37.9,29.82,WNW,289,0.0,1.0,37,0.00,,,0.00,0062,Weather View 32 v70,2013-12-20 21:13:00,
2013-12-20 13:18:00,65.3,39.0,29.81,WNW,283,0.0,1.0,38,0.00,,,0.00,0406,Weather View 32 v70,2013-12-20 21:18:00,
2013-12-20 13:23:00,65.6,39.9,29.81,NW,309,0.0,1.0,39,0.00,,,0.00,0396,Weather View 32 v70,2013-12-20 21:23:00,
2013-12-20 13:29:00,66.0,39.6,29.81,NW,309,0.0,0.0,38,0.00,,,0.00,0468,Weather View 32 v70,2013-12-20 21:29:00,
2013-12-20 13:34:00,66.1,39.0,29.81,WNW,292,0.0,1.0,37,0.00,,,0.00,0325,Weather View 32 v70,2013-12-20 21:34:00,
2013-12-20 13:39:00,66.2,39.8,29.81,NW,307,0.0,0.0,38,0.00,,,0.00,0471,Weather View 32 v70,2013-12-20 21:39:00,
2013-12-20 13:44:00,66.1,39.0,29.81,WNW,300,0.0,1.0,37,0.00,,,0.00,0464,Weather View 32 v70,2013-12-20 21:44:00,
2013-12-20 13:49:00,65.9,38.1,29.81,NW,313,0.0,2.0,36,0.00,,,0.00,0420,Weather View 32 v70,2013-12-20 21:49:00,
2013-12-20 13:54:00,65.9,39.5,29.81,NW,313,0.0,0.0,38,0.00,,,0.00,0162,Weather View 32 v70,2013-12-20 21:54:00,
2013-12-20 13:59:00,65.4,38.4,29.81,NW,313,0.0,0.0,37,0.00,,,0.00,0432,Weather View 32 v70,2013-12-20 21:59:00,
2013-12-20 14:04:00,65.4,38.4,29.81,NW,313,0.0,1.0,37,0.00,,,0.00,0406,Weather View 32 v70,2013-12-20 22:04:00,
2013-12-20 14:09:00,65.5,38.5,29.82,NW,314,0.0,0.0,37,0.00,,,0.00,0250,Weather View 32 v70,2013-12-20 22:09:00,
2013-12-20 14:14:00,65.6,39.9,29.81,NW,314,0.0,1.0,39,0.00,,,0.00,0366,Weather View 32 v70,2013-12-20 22:14:00,
2013-12-20 14:19:00,65.8,40.1,29.82,NW,314,0.0,0.0,39,0.00,,,0.00,0346,Weather View 32 v70,2013-12-20 22:19:00,
2013-12-20 14:24:00,65.9,38.8,29.81,NNW,332,0.0,1.0,37,0.00,,,0.00,0199,Weather View 32 v70,2013-12-20 22:24:00,
2013-12-20 14:29:00,65.8,40.1,29.81,NNW,327,0.0,0.0,39,0.00,,,0.00,0211,Weather View 32 v70,2013-12-20 22:29:00,
2013-12-20 14:34:00,65.7,40.0,29.82,West,281,1.0,5.0,39,0.00,,,0.00,0221,Weather View 32 v70,2013-12-20 22:34:00,
2013-12-20 14:39:00,65.2,40.2,29.81,West,272,0.0,2.0,40,0.00,,,0.00,0221,Weather View 32 v70,2013-12-20 22:39:00,
2013-12-20 14:44:00,64.8,41.1,29.82,West,274,0.0,1.0,42,0.00,,,0.00,0230,Weather View 32 v70,2013-12-20 22:44:00,
2013-12-20 14:49:00,64.5,39.6,29.82,WNW,287,0.0,1.0,40,0.00,,,0.00,0053,Weather View 32 v70,2013-12-20 22:49:00,
2013-12-20 14:54:00,64.1,39.9,29.82,WNW,287,0.0,1.0,41,0.00,,,0.00,0051,Weather View 32 v70,2013-12-20 22:54:00,
2013-12-20 14:59:00,64.0,40.4,29.82,WNW,287,0.0,0.0,42,0.00,,,0.00,0199,Weather View 32 v70,2013-12-20 22:59:00,
2013-12-20 15:04:00,64.0,39.8,29.82,NNW,345,0.0,1.0,41,0.00,,,0.00,0211,Weather View 32 v70,2013-12-20 23:04:00,
2013-12-20 15:09:00,63.9,40.3,29.82,West,279,0.0,0.0,42,0.00,,,0.00,0204,Weather View 32 v70,2013-12-20 23:09:00,
2013-12-20 15:14:00,63.7,39.5,29.82,West,280,0.0,1.0,41,0.00,,,0.00,0105,Weather View 32 v70,2013-12-20 23:14:00,
2013-12-20 15:19:00,63.5,39.9,29.82,WNW,284,0.0,0.0,42,0.00,,,0.00,0144,Weather View 32 v70,2013-12-20 23:19:00,
2013-12-20 15:24:00,63.6,40.0,29.82,WNW,284,0.0,1.0,42,0.00,,,0.00,0047,Weather View 32 v70,2013-12-20 23:24:00,
2013-12-20 15:29:00,63.4,38.6,29.83,WNW,284,0.0,0.0,40,0.00,,,0.00,0079,Weather View 32 v70,2013-12-20 23:29:00,
2013-12-20 15:34:00,63.1,39.6,29.84,WNW,284,0.0,0.0,42,0.00,,,0.00,0044,Weather View 32 v70,2013-12-20 23:34:00,
2013-12-20 15:39:00,63.0,38.9,29.83,WNW,284,0.0,1.0,41,0.00,,,0.00,0083,Weather View 32 v70,2013-12-20 23:39:00,
2013-12-20 15:44:00,62.7,38.6,29.83,WNW,288,0.0,0.0,41,0.00,,,0.00,0044,Weather View 32 v70,2013-12-20 23:44:00,
2013-12-20 15:49:00,62.4,38.3,29.84,WNW,287,0.0,0.0,41,0.00,,,0.00,0035,Weather View 32 v70,2013-12-20 23:49:00,
2013-12-20 15:54:00,62.1,38.7,29.83,WNW,287,0.0,0.0,42,0.00,,,0.00,0033,Weather View 32 v70,2013-12-20 23:54:00,
2013-12-20 15:59:00,62.0,39.2,29.84,WNW,288,0.0,1.0,43,0.00,,,0.00,0030,Weather View 32 v70,2013-12-20 23:59:00,
2013-12-20 16:04:00,61.8,39.0,29.84,WNW,288,0.0,0.0,43,0.00,,,0.00,0028,Weather View 32 v70,2013-12-21 00:04:00,
2013-12-20 16:11:00,61.6,38.8,29.84,WNW,287,0.0,0.0,43,0.00,,,0.00,0028,Weather View 32 v70,2013-12-21 00:11:00,
2013-12-20 16:16:00,61.4,39.2,29.84,WNW,287,0.0,0.0,44,0.00,,,0.00,0032,Weather View 32 v70,2013-12-21 00:16:00,
2013-12-20 16:21:00,61.2,38.5,29.84,WNW,288,0.0,0.0,43,0.00,,,0.00,0028,Weather View 32 v70,2013-12-21 00:21:00,
2013-12-20 16:26:00,61.0,38.9,29.84,WNW,288,0.0,0.0,44,0.00,,,0.00,0023,Weather View 32 v70,2013-12-21 00:26:00,
2013-12-20 16:31:00,60.8,39.3,29.84,NE,51,0.0,0.0,45,0.00,,,0.00,0019,Weather View 32 v70,2013-12-21 00:31:00,
2013-12-20 16:36:00,60.7,39.2,29.84,NE,51,0.0,0.0,45,0.00,,,0.00,0018,Weather View 32 v70,2013-12-21 00:36:00,
2013-12-20 16:41:00,60.5,38.4,29.84,NE,51,0.0,0.0,44,0.00,,,0.00,0012,Weather View 32 v70,2013-12-21 00:41:00,
2013-12-20 16:46:00,60.3,38.8,29.84,NE,51,0.0,0.0,45,0.00,,,0.00,0007,Weather View 32 v70,2013-12-21 00:46:00,
2013-12-20 16:51:00,60.0,38.0,29.83,NE,51,0.0,0.0,44,0.00,,,0.00,0005,Weather View 32 v70,2013-12-21 00:51:00,
2013-12-20 16:56:00,59.8,37.8,29.84,NE,51,0.0,0.0,44,0.00,,,0.00,0000,Weather View 32 v70,2013-12-21 00:56:00,
2013-12-20 17:01:00,59.5,37.5,29.84,NE,51,0.0,0.0,44,0.00,,,0.00,0000,Weather View 32 v70,2013-12-21 01:01:00,
2013-12-20 17:06:00,59.0,37.1,29.84,NE,51,0.0,0.0,44,0.00,,,0.00,0000,Weather View 32 v70,2013-12-21 01:06:00,
2013-12-20 17:11:00,59.0,37.1,29.84,NE,51,0.0,0.0,44,0.00,,,0.00,0000,Weather View 32 v70,2013-12-21 01:11:00,
2013-12-20 17:16:00,58.7,37.4,29.84,NE,51,0.0,0.0,45,0.00,,,0.00,0000,Weather View 32 v70,2013-12-21 01:16:00,
2013-12-20 17:21:00,58.3,38.1,29.84,NE,51,0.0,0.0,47,0.00,,,0.00,0000,Weather View 32 v70,2013-12-21 01:21:00,
2013-12-20 17:26:00,58.0,37.3,29.84,NE,51,0.0,0.0,46,0.00,,,0.00,0000,Weather View 32 v70,2013-12-21 01:26:00,
2013-12-20 17:31:00,57.5,36.8,29.85,NE,51,0.0,0.0,46,0.00,,,0.00,0000,Weather View 32 v70,2013-12-21 01:31:00,
2013-12-20 17:36:00,57.1,37.0,29.86,NE,51,0.0,0.0,47,0.00,,,0.00,0000,Weather View 32 v70,2013-12-21 01:36:00,
2013-12-20 17:41:00,56.7,36.7,29.85,NE,51,0.0,0.0,47,0.00,,,0.00,0000,Weather View 32 v70,2013-12-21 01:41:00,
2013-12-20 17:46:00,56.3,36.3,29.85,NE,51,0.0,0.0,47,0.00,,,0.00,0000,Weather View 32 v70,2013-12-21 01:46:00,
2013-12-20 17:51:00,56.0,36.5,29.85,NE,51,0.0,0.0,48,0.00,,,0.00,0000,Weather View 32 v70,2013-12-21 01:51:00,
2013-12-20 17:56:00,55.6,36.2,29.86,NE,51,0.0,0.0,48,0.00,,,0.00,0000,Weather View 32 v70,2013-12-21 01:56:00,
2013-12-20 18:01:00,55.4,36.0,29.86,NE,51,0.0,0.0,48,0.00,,,0.00,0000,Weather View 32 v70,2013-12-21 02:01:00,
2013-12-20 18:06:00,55.2,36.3,29.86,NE,51,0.0,0.0,49,0.00,,,0.00,0000,Weather View 32 v70,2013-12-21 02:06:00,
2013-12-20 18:11:00,55.0,36.2,29.86,NE,51,0.0,0.0,49,0.00,,,0.00,0000,Weather View 32 v70,2013-12-21 02:11:00,
2013-12-20 18:16:00,54.8,36.0,29.87,NE,51,0.0,0.0,49,0.00,,,0.00,0000,Weather View 32 v70,2013-12-21 02:16:00,
2013-12-20 18:21:00,54.6,35.8,29.87,NE,51,0.0,0.0,49,0.00,,,0.00,0000,Weather View 32 v70,2013-12-21 02:21:00,
2013-12-20 18:26:00,54.5,36.2,29.87,NE,51,0.0,0.0,50,0.00,,,0.00,0000,Weather View 32 v70,2013-12-21 02:26:00,
2013-12-20 18:31:00,54.2,36.4,29.87,NE,51,0.0,0.0,51,0.00,,,0.00,0000,Weather View 32 v70,2013-12-21 02:31:00,
2013-12-20 18:36:00,54.0,36.7,29.87,NE,51,0.0,0.0,52,0.00,,,0.00,0000,Weather View 32 v70,2013-12-21 02:36:00,
2013-12-20 18:41:00,53.7,36.9,29.88,NE,51,0.0,0.0,53,0.00,,,0.00,0000,Weather View 32 v70,2013-12-21 02:41:00,
2013-12-20 18:46:00,53.3,36.6,29.88,NE,51,0.0,0.0,53,0.00,,,0.00,0000,Weather View 32 v70,2013-12-21 02:46:00,
2013-12-20 18:51:00,53.1,36.4,29.88,NE,51,0.0,0.0,53,0.00,,,0.00,0000,Weather View 32 v70,2013-12-21 02:51:00,
2013-12-20 18:56:00,52.9,36.2,29.87,NE,51,0.0,0.0,53,0.00,,,0.00,0000,Weather View 32 v70,2013-12-21 02:56:00,
2013-12-20 19:01:00,52.6,36.4,29.88,NE,51,0.0,0.0,54,0.00,,,0.00,0000,Weather View 32 v70,2013-12-21 03:01:00,
2013-12-20 19:06:00,52.3,36.1,29.87,NE,51,0.0,0.0,54,0.00,,,0.00,0000,Weather View 32 v70,2013-12-21 03:06:00,
2013-12-20 19:12:00,52.1,35.9,29.88,NE,51,0.0,0.0,54,0.00,,,0.00,0000,Weather View 32 v70,2013-12-21 03:12:00,
2013-12-20 19:17:00,51.9,36.7,29.88,NE,51,0.0,0.0,56,0.00,,,0.00,0000,Weather View 32 v70,2013-12-21 03:17:00,
2013-12-20 19:22:00,51.7,36.0,29.88,NE,51,0.0,0.0,55,0.00,,,0.00,0000,Weather View 32 v70,2013-12-21 03:22:00,
2013-12-20 19:27:00,51.5,35.8,29.88,NE,51,0.0,0.0,55,0.00,,,0.00,0000,Weather View 32 v70,2013-12-21 03:27:00,
2013-12-20 19:32:00,51.4,36.2,29.88,NE,51,0.0,1.0,56,0.00,,,0.00,0000,Weather View 32 v70,2013-12-21 03:32:00,
2013-12-20 19:37:00,51.2,36.0,29.88,NE,53,0.0,2.0,56,0.00,,,0.00,0000,Weather View 32 v70,2013-12-21 03:37:00,
2013-12-20 19:42:00,51.1,36.4,29.88,ENE,69,0.0,1.0,57,0.00,,,0.00,0000,Weather View 32 v70,2013-12-21 03:42:00,
2013-12-20 19:47:00,51.0,35.8,29.89,ENE,69,0.0,0.0,56,0.00,,,0.00,0000,Weather View 32 v70,2013-12-21 03:47:00,
2013-12-20 19:52:00,50.9,36.2,29.89,ENE,70,0.0,0.0,57,0.00,,,0.00,0000,Weather View 32 v70,2013-12-21 03:52:00,
2013-12-20 19:57:00,50.9,35.7,29.89,ENE,70,0.0,0.0,56,0.00,,,0.00,0000,Weather View 32 v70,2013-12-21 03:57:00,
2013-12-20 20:02:00,50.9,35.7,29.88,ENE,70,0.0,0.0,56,0.00,,,0.00,0000,Weather View 32 v70,2013-12-21 04:02:00,
2013-12-20 20:07:00,51.0,35.4,29.89,ENE,70,0.0,0.0,55,0.00,,,0.00,0000,Weather View 32 v70,2013-12-21 04:07:00,
2013-12-20 20:12:00,51.2,35.6,29.89,ENE,69,0.0,0.0,55,0.00,,,0.00,0000,Weather View 32 v70,2013-12-21 04:12:00,
2013-12-20 20:17:00,51.3,36.1,29.89,ENE,70,0.0,0.0,56,0.00,,,0.00,0000,Weather View 32 v70,2013-12-21 04:17:00,
2013-12-20 20:22:00,51.4,35.7,29.88,ENE,70,0.0,0.0,55,0.00,,,0.00,0000,Weather View 32 v70,2013-12-21 04:22:00,
2013-12-20 20:27:00,51.4,35.7,29.88,ENE,69,0.0,1.0,55,0.00,,,0.00,0000,Weather View 32 v70,2013-12-21 04:27:00,
2013-12-20 20:32:00,51.4,35.7,29.89,ENE,69,0.0,0.0,55,0.00,,,0.00,0000,Weather View 32 v70,2013-12-21 04:32:00,
2013-12-20 20:37:00,51.3,35.7,29.89,ENE,69,0.0,0.0,55,0.00,,,0.00,0000,Weather View 32 v70,2013-12-21 04:37:00,
2013-12-20 20:42:00,51.1,35.9,29.89,ENE,70,0.0,0.0,56,0.00,,,0.00,0000,Weather View 32 v70,2013-12-21 04:42:00,
2013-12-20 20:47:00,50.8,35.6,29.90,ENE,70,0.0,0.0,56,0.00,,,0.00,0000,Weather View 32 v70,2013-12-21 04:47:00,
2013-12-20 20:52:00,50.5,35.8,29.90,ENE,69,0.0,1.0,57,0.00,,,0.00,0000,Weather View 32 v70,2013-12-21 04:52:00,
2013-12-20 20:57:00,50.3,35.6,29.90,ENE,69,0.0,0.0,57,0.00,,,0.00,0000,Weather View 32 v70,2013-12-21 04:57:00,
2013-12-20 21:08:00,50.0,35.3,29.90,ENE,69,0.0,0.0,57,0.00,,,0.00,0000,Weather View 32 v70,2013-12-21 05:08:00,
2013-12-20 21:14:00,49.8,34.3,29.90,ENE,69,0.0,0.0,55,0.00,,,0.00,0000,Weather View 32 v70,2013-12-21 05:14:00,
2013-12-20 21:19:00,49.8,34.7,29.90,ENE,69,0.0,0.0,56,0.00,,,0.00,0000,Weather View 32 v70,2013-12-21 05:19:00,
2013-12-20 21:24:00,49.8,34.7,29.90,ENE,69,0.0,0.0,56,0.00,,,0.00,0000,Weather View 32 v70,2013-12-21 05:24:00,
2013-12-20 21:29:00,49.8,34.7,29.91,ENE,69,0.0,0.0,56,0.00,,,0.00,0000,Weather View 32 v70,2013-12-21 05:29:00,
2013-12-20 21:34:00,49.8,34.7,29.90,ENE,69,0.0,0.0,56,0.00,,,0.00,0000,Weather View 32 v70,2013-12-21 05:34:00,
2013-12-20 21:39:00,49.7,34.6,29.90,ENE,69,0.0,0.0,56,0.00,,,0.00,0000,Weather View 32 v70,2013-12-21 05:39:00,
2013-12-20 21:44:00,49.7,35.1,29.90,ENE,69,0.0,0.0,57,0.00,,,0.00,0000,Weather View 32 v70,2013-12-21 05:44:00,
2013-12-20 21:49:00,49.6,35.0,29.90,ENE,69,0.0,0.0,57,0.00,,,0.00,0000,Weather View 32 v70,2013-12-21 05:49:00,
2013-12-20 21:54:00,49.4,34.8,29.91,ENE,69,0.0,0.0,57,0.00,,,0.00,0000,Weather View 32 v70,2013-12-21 05:54:00,
2013-12-20 21:59:00,49.2,34.6,29.91,ENE,69,0.0,0.0,57,0.00,,,0.00,0000,Weather View 32 v70,2013-12-21 05:59:00,
2013-12-20 22:04:00,49.2,34.6,29.91,ENE,69,0.0,0.0,57,0.00,,,0.00,0000,Weather View 32 v70,2013-12-21 06:04:00,
2013-12-20 22:09:00,49.0,34.4,29.92,ENE,69,0.0,0.0,57,0.00,,,0.00,0000,Weather View 32 v70,2013-12-21 06:09:00,
2013-12-20 22:14:00,48.9,34.3,29.91,ENE,69,0.0,0.0,57,0.00,,,0.00,0000,Weather View 32 v70,2013-12-21 06:14:00,
2013-12-20 22:19:00,48.7,34.1,29.91,ENE,69,0.0,0.0,57,0.00,,,0.00,0000,Weather View 32 v70,2013-12-21 06:19:00,
2013-12-20 22:24:00,48.7,34.1,29.92,ENE,69,0.0,0.0,57,0.00,,,0.00,0000,Weather View 32 v70,2013-12-21 06:24:00,
2013-12-20 22:29:00,48.6,34.0,29.92,ENE,69,0.0,0.0,57,0.00,,,0.00,0000,Weather View 32 v70,2013-12-21 06:29:00,
2013-12-20 22:34:00,48.6,34.0,29.92,ENE,69,0.0,0.0,57,0.00,,,0.00,0000,Weather View 32 v70,2013-12-21 06:34:00,
2013-12-20 22:39:00,48.6,34.0,29.92,ENE,69,0.0,0.0,57,0.00,,,0.00,0000,Weather View 32 v70,2013-12-21 06:39:00,
2013-12-20 22:44:00,48.6,34.0,29.92,ENE,69,0.0,0.0,57,0.00,,,0.00,0000,Weather View 32 v70,2013-12-21 06:44:00,
2013-12-20 22:49:00,48.6,34.0,29.92,ENE,69,0.0,0.0,57,0.00,,,0.00,0000,Weather View 32 v70,2013-12-21 06:49:00,
2013-12-20 22:54:00,48.6,34.0,29.93,ENE,69,0.0,0.0,57,0.00,,,0.00,0000,Weather View 32 v70,2013-12-21 06:54:00,
2013-12-20 22:59:00,48.6,34.0,29.93,ENE,69,0.0,0.0,57,0.00,,,0.00,0000,Weather View 32 v70,2013-12-21 06:59:00,
2013-12-20 23:04:00,48.6,34.0,29.93,ENE,69,0.0,0.0,57,0.00,,,0.00,0000,Weather View 32 v70,2013-12-21 07:04:00,
2013-12-20 23:09:00,48.5,33.9,29.93,ENE,69,0.0,0.0,57,0.00,,,0.00,0000,Weather View 32 v70,2013-12-21 07:09:00,
2013-12-20 23:14:00,48.4,34.3,29.93,ENE,69,0.0,0.0,58,0.00,,,0.00,0000,Weather View 32 v70,2013-12-21 07:14:00,
2013-12-20 23:19:00,48.3,33.7,29.92,ENE,69,0.0,0.0,57,0.00,,,0.00,0000,Weather View 32 v70,2013-12-21 07:19:00,
2013-12-20 23:24:00,48.2,33.2,29.92,ENE,69,0.0,0.0,56,0.00,,,0.00,0000,Weather View 32 v70,2013-12-21 07:24:00,
2013-12-20 23:29:00,48.2,33.7,29.92,ENE,69,0.0,0.0,57,0.00,,,0.00,0000,Weather View 32 v70,2013-12-21 07:29:00,
2013-12-20 23:34:00,48.1,33.6,29.92,ENE,69,0.0,0.0,57,0.00,,,0.00,0000,Weather View 32 v70,2013-12-21 07:34:00,
2013-12-20 23:39:00,48.1,33.6,29.92,ENE,69,0.0,0.0,57,0.00,,,0.00,0000,Weather View 32 v70,2013-12-21 07:39:00,
2013-12-20 23:44:00,48.0,33.5,29.92,ENE,69,0.0,0.0,57,0.00,,,0.00,0000,Weather View 32 v70,2013-12-21 07:44:00,
2013-12-20 23:49:00,48.0,33.0,29.92,ENE,69,0.0,0.0,56,0.00,,,0.00,0000,Weather View 32 v70,2013-12-21 07:49:00,
2013-12-20 23:54:00,47.9,32.9,29.92,ENE,69,0.0,0.0,56,0.00,,,0.00,0000,Weather View 32 v70,2013-12-21 07:54:00,
2013-12-20 23:59:00,47.8,33.3,29.91,ENE,69,0.0,0.0,57,0.00,,,0.00,0000,Weather View 32 v70,2013-12-21 07:59:00,